This demonstration page uses our WeatherBlox Daily Observations layout. Learn more.

Left ArrowRight Arrow

40.92945, -100.16068

Hourly Observations for May 25, 2015

Temp ( °F °C ) Dew Point ( °F °C ) Humidity (%) Winds ( mph kmh ) Pressure ( in mb ) Visibility ( mi km ) Precip ( " mm )
12:15 am 00:15 Partly Cloudy 56 13.1 53 11.7 91 91 N 7 11 29.77 1008 10 16.0934 N/A
12:35 am 00:35 Clear with Light Rain 55 12.8 53 11.5 92 92 WSW 5 7 29.77 1008 10 16.0934 N/A
12:55 am 00:55 Clear 54 12.2 52 11.1 93 93 N N/A 29.77 1008 10 16.0934 N/A
1:15 am 01:15 Clear with Nearby Thunderstorms 53 11.6 51 10.7 94 94 S 5 7 29.77 1008 10 16.0934 N/A
1:35 am 01:35 Clear 53 11.8 52 11 95 95 S 5 7 29.74 1007 10 16.0934 N/A
1:55 am 01:55 Partly Cloudy 53 11.8 52 11 95 95 SSW 14 22 29.77 1008 10 16.0934 0.01 0.254
2:15 am 02:15 Partly Cloudy 55 12.5 53 11.7 95 95 SSE 7 11 29.77 1008 10 16.0934 N/A
2:35 am 02:35 Mostly Cloudy with Light Rain 55 12.5 53 11.6 94 94 NNE 3 6 29.74 1007 10 16.0934 N/A
2:55 am 02:55 Partly Cloudy 54 12.4 53 11.5 94 94 N 5 7 29.71 1006 10 16.0934 0.01 0.254
3:15 am 03:15 Clear 54 12.1 52 11.2 94 94 WSW 5 7 29.71 1006 10 16.0934 N/A
3:35 am 03:35 Clear 53 11.7 52 11 96 96 SW 5 7 29.74 1007 10 16.0934 N/A
3:55 am 03:55 Clear 53 11.8 52 11.1 96 96 W 6 9 29.74 1007 10 16.0934 N/A
4:15 am 04:15 Clear 54 12 52 11.3 96 96 WNW 13 20 29.71 1006 10 16.0934 N/A
4:35 am 04:35 Clear 54 12.2 53 11.5 96 96 W 8 13 29.74 1007 10 16.0934 N/A
4:55 am 04:55 Clear 54 12.2 53 11.4 95 95 N N/A 29.74 1007 10 16.0934 N/A
5:15 am 05:15 Clear 54 12.1 52 11 93 93 WSW 3 6 29.74 1007 10 16.0934 N/A
5:35 am 05:35 Clear 54 12.1 52 11.1 94 94 WSW 3 6 29.74 1007 10 16.0934 N/A
5:55 am 05:55 Clear 54 12.2 52 11.1 93 93 SSW 6 9 29.74 1007 10 16.0934 N/A
6:15 am 06:15 Sunny 54 12.2 52 11 92 92 SW 5 7 29.74 1007 10 16.0934 N/A
6:35 am 06:35 Sunny 54 12.2 52 11.1 93 93 SSW 7 11 29.74 1007 10 16.0934 N/A
6:55 am 06:55 Sunny 54 12.2 52 11.1 93 93 SW 6 9 29.74 1007 10 16.0934 N/A
7:15 am 07:15 Sunny 54 12 52 11 94 94 SW 6 9 29.74 1007 10 16.0934 N/A
7:35 am 07:35 Sunny 53 11.7 51 10.8 94 94 SSE 5 7 29.77 1008 10 16.0934 N/A
7:55 am 07:55 Partly Cloudy 56 13.5 55 12.5 94 94 S 5 7 29.77 1008 10 16.0934 N/A
8:15 am 08:15 Partly Cloudy 57 14 55 12.6 91 91 N N/A 29.77 1008 10 16.0934 N/A
8:35 am 08:35 Sunny 59 15 55 12.9 87 87 SW 5 7 29.74 1007 10 16.0934 N/A
8:55 am 08:55 Sunny 60 15.8 55 12.8 82 82 SW 3 6 29.74 1007 10 16.0934 N/A
9:15 am 09:15 Sunny 62 16.5 55 12.9 79 79 SW 5 7 29.74 1007 10 16.0934 N/A
9:35 am 09:35 Sunny 63 17.1 54 12.3 74 74 SW 5 7 29.74 1007 10 16.0934 N/A
9:55 am 09:55 Sunny 64 17.5 55 12.6 73 73 W 5 7 29.71 1006 10 16.0934 N/A
10:15 am 10:15 Sunny 64 17.8 54 12.3 70 70 SW 5 7 29.71 1006 10 16.0934 N/A
10:35 am 10:35 Sunny 65 18.3 56 13.3 73 73 SW 6 9 29.71 1006 10 16.0934 N/A
10:55 am 10:55 Sunny 65 18.4 55 12.5 69 69 SW 5 7 29.71 1006 10 16.0934 N/A
11:15 am 11:15 Partly Cloudy 66 19 55 12.8 67 67 SW 8 13 29.68 1005 10 16.0934 N/A
11:35 am 11:35 Partly Cloudy 68 19.8 55 12.8 64 64 S 7 11 29.71 1006 10 16.0934 N/A
11:55 am 11:55 Mostly Cloudy 67 19.5 55 12.9 66 66 SW 8 13 29.68 1005 10 16.0934 N/A
12:15 pm 12:15 Partly Cloudy 69 20.6 56 13.3 63 63 SW 12 19 29.65 1004 10 16.0934 N/A
12:35 pm 12:35 Partly Cloudy 67 19.5 54 12.4 64 64 SW 6 9 29.68 1005 10 16.0934 N/A
12:55 pm 12:55 Partly Cloudy 69 20.3 56 13.2 64 64 SSW 9 15 29.71 1006 10 16.0934 N/A
1:15 pm 13:15 Partly Cloudy 69 20.5 58 14.2 67 67 S 13 20 29.71 1006 10 16.0934 N/A
1:35 pm 13:35 Partly Cloudy 71 21.7 58 14.5 64 64 S 13 20 29.68 1005 10 16.0934 N/A
1:55 pm 13:55 Sunny 71 21.5 57 13.7 61 61 SSW 12 19 29.68 1005 10 16.0934 N/A
2:15 pm 14:15 Sunny 71 21.6 56 13.3 59 59 SSW 15 24 29.68 1005 10 16.0934 N/A
2:35 pm 14:35 Partly Cloudy 71 21.6 56 13.6 61 61 SW 12 19 29.68 1005 10 16.0934 N/A
2:55 pm 14:55 Sunny 72 22.1 58 14.2 61 61 S 14 22 29.68 1005 10 16.0934 N/A
3:15 pm 15:15 Sunny 71 21.9 54 12.1 54 54 WSW 10 17 29.68 1005 10 16.0934 N/A
3:35 pm 15:35 Sunny 73 22.6 54 12.3 52 52 WSW 10 17 29.65 1004 10 16.0934 N/A
3:55 pm 15:55 Sunny 73 22.7 55 12.5 53 53 WSW 10 17 29.65 1004 10 16.0934 N/A
4:15 pm 16:15 Sunny 74 23.2 53 11.7 48 48 SW 10 17 29.65 1004 10 16.0934 N/A
4:35 pm 16:35 Sunny 75 23.7 54 12.2 49 49 SW 17 28 29.65 1004 10 16.0934 N/A
4:55 pm 16:55 Sunny 74 23.5 53 11.7 48 48 WSW 12 19 29.65 1004 10 16.0934 N/A
5:15 pm 17:15 Sunny 73 23 54 12.1 50 50 W 12 19 29.65 1004 10 16.0934 N/A
5:35 pm 17:35 Sunny 72 22.3 54 12.4 54 54 WNW 10 17 29.62 1003 10 16.0934 N/A
5:55 pm 17:55 Sunny 74 23.1 53 11.8 49 49 WSW 10 17 29.62 1003 10 16.0934 N/A
6:15 pm 18:15 Partly Cloudy 71 21.7 54 12.1 55 55 W 7 11 29.62 1003 10 16.0934 N/A
6:35 pm 18:35 Sunny 71 21.9 54 12.1 54 54 W 12 19 29.65 1004 10 16.0934 N/A
6:55 pm 18:55 Sunny 71 21.5 53 11.6 53 53 W 12 19 29.65 1004 10 16.0934 N/A
7:15 pm 19:15 Sunny 72 22.2 53 11.4 51 51 W 13 20 29.65 1004 10 16.0934 N/A
7:35 pm 19:35 Sunny 70 21.3 51 10.4 50 50 W 10 17 29.65 1004 10 16.0934 N/A
7:55 pm 19:55 Sunny 69 20.8 51 10.7 53 53 W 10 17 29.65 1004 10 16.0934 N/A
8:15 pm 20:15 Sunny 67 19.7 51 10.6 56 56 W 8 13 29.68 1005 10 16.0934 N/A
8:35 pm 20:35 Sunny 66 19.1 51 10.7 58 58 W 8 13 29.68 1005 10 16.0934 N/A
8:55 pm 20:55 Sunny 64 17.8 52 11.1 65 65 W 8 13 29.68 1005 10 16.0934 N/A
9:15 pm 21:15 Clear 62 16.6 52 11.2 71 71 W 7 11 29.74 1007 10 16.0934 N/A
9:35 pm 21:35 Clear 59 15.1 52 11.2 78 78 W 7 11 29.74 1007 10 16.0934 N/A
9:55 pm 21:55 Clear 59 14.9 52 11.3 79 79 W 6 9 29.74 1007 10 16.0934 N/A
10:15 pm 22:15 Clear 58 14.2 53 11.4 83 83 W 10 17 29.77 1008 10 16.0934 N/A
10:35 pm 22:35 Clear 57 14.1 53 11.5 84 84 WNW 9 15 29.8 1009 10 16.0934 N/A
10:55 pm 22:55 Clear 56 13.5 53 11.4 87 87 WNW 8 13 29.8 1009 10 16.0934 N/A
11:15 pm 23:15 Clear 56 13.2 52 11.3 88 88 WNW 8 13 29.8 1009 10 16.0934 N/A
11:35 pm 23:35 Partly Cloudy 57 13.8 54 12 89 89 NNW 10 17 29.8 1009 10 16.0934 N/A
11:55 pm 23:55 Partly Cloudy 59 15 55 12.6 86 86 N 13 20 29.77 1008 10 16.0934 N/A

Powered by AerisWeather